Los Alamos, NM

5:57 AM MST on February 06, 2016 (GMT -0700)
Los Alamos

Weather History for KLAM - October, 2012

Change the Weather History Date:

Thursday, October 25, 2012

  Actual Average Record
Temperature  
Mean Temperature 46 °F -  
Max Temperature 54 °F 58 °F 73 °F (1999)
Min Temperature 37 °F 34 °F 20 °F (1956)
Degree Days  
Heating Degree Days 20    
Moisture  
Dew Point 9 °F    
Average Humidity 24    
Maximum Humidity 58    
Minimum Humidity 12    
Precipitation  
Precipitation 0.00 in - - ()
Sea Level Pressure  
Sea Level Pressure 30.12 in    
Wind  
Wind Speed 5 mph (South)    
Max Wind Speed 15 mph    
Max Gust Speed 21 mph    
Averages and records for this station are not official NWS values.
T = Trace of Precipitation, MM = Missing Value Source: NWS Daily Summary

Daily Weather History Graph

Daily Weather History Graph

Search for Another Location

Airport or City:

Trip Planner

Search our weather history database for the weather conditions in past years. The results will help you decide how hot, cold, wet, or windy it might be!

Date:

Astronomy

Oct. 25, 2012 Rise Set
Actual Time 7:21 AM MDT 6:16 PM MDT
Civil Twilight 6:55 AM MDT 6:42 PM MDT
Nautical Twilight 6:25 AM MDT 7:12 PM MDT
Astronomical Twilight 5:55 AM MDT 7:42 PM MDT
Moon 3:58 PM MDT (10/25) 3:27 AM MDT (10/25)
Length of Visible Light 11h 47m
Length of Day
10h 55m
Waxing Gibbous, 85% of the Moon is Illuminated
Oct 25
Waxing Gibbous
Oct 29
Full
Nov 6
Last Quarter
Nov 13
New
Nov 20
First Quarter

Hourly Weather History & Observations

Time (MDT) Temp. Windchill Dew Point Humidity Pressure Visibility Wind Dir Wind Speed Gust Speed Precip Events Conditions
12:15 AM 50.0 °F - 15.6 °F 25% 30.01 in - South 5.8 mph - N/A   Clear
12:35 AM 48.7 °F - 16.0 °F 27% 30.02 in - Calm Calm - N/A   Clear
12:55 AM 47.7 °F - 17.6 °F 30% 30.02 in - NW 3.5 mph - N/A   Clear
1:35 AM 45.9 °F 44.6 °F 17.8 °F 33% 30.04 in - WSW 3.5 mph - N/A   Clear
1:55 AM 45.0 °F - 17.8 °F 34% 30.05 in - Calm Calm - N/A   Clear
2:15 AM 44.6 °F 43.1 °F 16.7 °F 33% 30.06 in - NNE 3.5 mph - N/A   Clear
2:35 AM 44.6 °F 42.2 °F 15.4 °F 31% 30.07 in - WNW 4.6 mph - N/A   Clear
2:55 AM 43.3 °F 39.2 °F 15.4 °F 32% 30.07 in - NNW 6.9 mph - N/A   Clear
3:15 AM 42.8 °F 38.6 °F 14.2 °F 31% 30.07 in - North 6.9 mph - N/A   Clear
3:35 AM 42.3 °F 36.3 °F 12.9 °F 30% 30.07 in - North 10.4 mph 16.1 mph N/A   Clear
3:55 AM 41.4 °F 35.7 °F 12.0 °F 30% 30.08 in - North 9.2 mph - N/A   Clear
4:15 AM 41.4 °F 39.4 °F 11.3 °F 29% 30.09 in - WSW 3.5 mph - N/A   Clear
4:35 AM 41.5 °F - 11.7 °F 30% 30.10 in - Calm Calm - N/A   Clear
4:55 AM 40.6 °F - 11.1 °F 30% 30.11 in - Calm Calm - N/A   Clear
5:35 AM 40.3 °F - 11.7 °F 31% 30.13 in - Calm Calm - N/A   Clear
5:55 AM 39.7 °F - 10.8 °F 30% 30.13 in - Calm Calm - N/A   Clear
6:15 AM 38.3 °F - 11.7 °F 34% 30.14 in - Calm Calm - N/A   Clear
6:35 AM 38.3 °F - 11.3 °F 33% 30.14 in - Calm Calm - N/A   Clear
6:55 AM 38.7 °F - 10.2 °F 31% 30.14 in - Calm Calm - N/A   Clear
7:35 AM 37.4 °F - 11.1 °F 34% 30.15 in - Calm Calm - N/A   Clear
7:55 AM 37.9 °F - 10.2 °F 32% 30.15 in - Calm Calm - N/A   Clear
8:15 AM 38.7 °F - 10.4 °F 31% 30.15 in - Calm Calm - N/A   Clear
8:55 AM 40.1 °F 38.0 °F 8.6 °F 27% 30.17 in - SSE 3.5 mph - N/A   Clear
9:55 AM 43.9 °F 41.3 °F 4.8 °F 20% 30.17 in - ENE 4.6 mph - N/A   Clear
10:15 AM 44.4 °F 42.9 °F 5.0 °F 20% 30.17 in - NE 3.5 mph - N/A   Clear
10:35 AM 44.6 °F 40.7 °F 5.0 °F 20% 30.15 in - East 6.9 mph - N/A   Clear
10:55 AM 45.3 °F 44.0 °F 4.6 °F 19% 30.15 in - ENE 3.5 mph - N/A   Clear
11:15 AM 45.5 °F 41.8 °F 5.2 °F 19% 30.15 in - East 6.9 mph - N/A   Clear
11:35 AM 46.6 °F - 5.2 °F 18% 30.15 in - ENE 6.9 mph - N/A   Clear
11:55 AM 47.3 °F - 5.0 °F 18% 30.15 in - NNE 3.5 mph - N/A   Clear
12:15 PM 48.0 °F - 4.3 °F 17% 30.15 in - SE 8.1 mph - N/A   Clear
12:35 PM 48.7 °F - 4.1 °F 16% 30.14 in - ENE 3.5 mph - N/A   Clear
12:55 PM 49.3 °F - 3.4 °F 15% 30.13 in - ESE 3.5 mph - N/A   Clear
1:15 PM 50.5 °F - 2.8 °F 14% 30.11 in - East 3.5 mph - N/A   Clear
1:35 PM 50.0 °F - 2.8 °F 15% 30.11 in - ESE 6.9 mph - N/A   Clear
1:55 PM 51.6 °F - 4.3 °F 15% 30.10 in - SE 8.1 mph - N/A   Clear
2:15 PM 51.4 °F - 4.8 °F 15% 30.10 in - SSE 9.2 mph - N/A   Clear
2:35 PM 52.0 °F - 4.8 °F 15% 30.09 in - SSE 9.2 mph - N/A   Clear
2:55 PM 52.9 °F - 3.7 °F 14% 30.08 in - ESE 5.8 mph - N/A   Clear
3:15 PM 53.4 °F - 2.8 °F 13% 30.08 in - North 3.5 mph - N/A   Clear
3:35 PM 54.3 °F - 2.3 °F 12% 30.07 in - North 4.6 mph - N/A   Clear
3:55 PM 54.5 °F - 1.4 °F 12% 30.08 in - Calm Calm - N/A   Clear
4:15 PM 53.8 °F - 2.1 °F 12% 30.08 in - North 6.9 mph - N/A   Clear
4:35 PM 54.1 °F - 2.7 °F 12% 30.09 in - Calm Calm - N/A   Clear
4:55 PM 54.7 °F - 1.9 °F 12% 30.10 in - WSW 15.0 mph 20.7 mph N/A   Clear
5:15 PM 53.2 °F - 2.5 °F 13% 30.11 in - West 8.1 mph - N/A   Clear
5:35 PM 52.3 °F - 3.2 °F 14% 30.11 in - WSW 8.1 mph - N/A   Clear
5:55 PM 51.8 °F - 4.1 °F 14% 30.11 in - WSW 3.5 mph - N/A   Clear
6:15 PM 50.9 °F - 4.1 °F 15% 30.12 in - SW 4.6 mph - N/A   Clear
6:35 PM 50.0 °F - 4.6 °F 16% 30.12 in - SW 8.1 mph - N/A   Clear
6:55 PM 50.0 °F - 4.6 °F 16% 30.13 in - SW 5.8 mph - N/A   Clear
7:15 PM 49.3 °F - 5.0 °F 16% 30.13 in - WSW 5.8 mph - N/A   Clear
7:35 PM 47.8 °F - 5.9 °F 18% 30.14 in - West 6.9 mph - N/A   Clear
7:55 PM 47.3 °F - 6.1 °F 19% 30.15 in - WSW 5.8 mph - N/A   Clear
8:15 PM 46.4 °F 43.5 °F 6.8 °F 20% 30.15 in - SW 5.8 mph - N/A   Clear
8:35 PM 46.8 °F - 6.1 °F 19% 30.15 in - SSW 6.9 mph - N/A   Clear
8:55 PM 46.4 °F 41.9 °F 5.9 °F 19% 30.15 in - SSW 9.2 mph - N/A   Clear
9:15 PM 45.7 °F 41.5 °F 6.6 °F 20% 30.15 in - SSW 8.1 mph - N/A   Clear
9:35 PM 45.5 °F 40.8 °F 6.6 °F 20% 30.15 in - SSW 9.2 mph - N/A   Clear
9:55 PM 45.1 °F 39.5 °F 8.6 °F 23% 30.17 in - South 11.5 mph - N/A   Clear
10:15 PM 41.9 °F 36.3 °F 19.4 °F 41% 30.18 in - South 9.2 mph - N/A   Clear
10:55 PM 40.1 °F 33.6 °F 23.9 °F 52% 30.19 in - South 10.4 mph 16.1 mph N/A   Clear
11:15 PM 39.2 °F 32.0 °F 23.9 °F 54% 30.20 in - South 11.5 mph - N/A   Clear
11:35 PM 38.5 °F 32.1 °F 23.9 °F 56% 30.21 in - South 9.2 mph - N/A   Clear
11:55 PM 37.9 °F 30.5 °F 24.4 °F 58% 30.21 in - South 11.5 mph 17.3 mph N/A   Clear